Regional Weather Roundup
Issued by NWS

Home | Current Version | Previous Version | Text Only | Print | Product List | Glossary On
Versions: 1 2 3 4 5 6 7 8 9 10 11 12 13 14 15 16 17 18 19 20 21 22 23 24 25 26 27 28 29 30 31 32 33 34 35 36 37 38 39 40 41 42 43 44 45 46 47 48 49 50
000
ASUS43 KTOP 102008
RWRKS

WEATHER ROUNDUP FOR KANSAS
NATIONAL WEATHER SERVICE GOODLAND KS
200 PM CST SAT DEC 10 2016

NOTE:  "FAIR" INDICATES FEW OR NO CLOUDS BELOW 12,000 FEET WITH NO
SIGNIFICANT WEATHER AND/OR OBSTRUCTIONS TO VISIBILITY.

KSZ001>006-013>018-027>032-041>047-102100-
NORTHWEST KANSAS

CITY           SKY/WX    TMP DP  RH WIND       PRES   REMARKS
GOODLAND       CLOUDY    36  25  64 S13       29.80F WCI  27
HAYS           CLOUDY    40  23  50 S18       29.97F WCI  31
HILL CITY      CLOUDY    38  23  55 S14       29.95F WCI  30
RUSSELL        CLOUDY    40  23  50 S18G25    29.97F WCI  31
$$

KSZ061>065-074>080-084>089-102100-
SOUTHWEST KANSAS

CITY           SKY/WX    TMP DP  RH WIND       PRES   REMARKS
DODGE CITY     CLOUDY    41  26  55 S20       29.94F
ELKHART          N/A     54  29  38 SE17        N/A
GARDEN CITY    CLOUDY    39  25  57 S14       29.89F WCI  31
GREAT BEND     CLOUDY    40  24  53 S22       29.99F WCI  30
LIBERAL        CLOUDY    48  30  49 S13       29.90F
PRATT          SUNNY     40  22  49 S15G23    30.02F WCI  31
$$

KSZ066>073-081>083-090>101-102100-
SOUTHEAST KANSAS

CITY           SKY/WX    TMP DP  RH WIND       PRES   REMARKS
CHANUTE        CLOUDY    41  19  41 S15       30.19F
COFFEYVILLE    CLOUDY    41  21  44 S12       30.23F
HUTCHINSON     SUNNY     44  23  43 S21       30.07F
MEDICINE LODGE   N/A     44  25  47 S20G29    30.02F
NEWTON         CLOUDY    42  22  44 S21       30.09F
PARSONS        CLOUDY    41  18  39 S10       30.23F
WICHITA INTL   MOSUNNY   46  22  38 S23G29    30.09F
WICHITA JABRA  MOSUNNY   43  22  43 S20G28    30.10F
WICHITA MCCONL SUNNY     45  21  39 S18G26    30.09F
WINFIELD       MOSUNNY   45  21  38 S21G31    30.13F
$$

KSZ007>012-019>026-033>040-048>060-102>105-102100-
NORTHEAST KANSAS

CITY           SKY/WX    TMP DP  RH WIND       PRES   REMARKS
CONCORDIA      CLOUDY    36  21  54 SE18      30.04F WCI  26
EMPORIA        CLOUDY    37  21  52 S14       30.16F WCI  28
LAWRENCE       CLOUDY    35  22  58 SE10      30.21F WCI  27
MANHATTAN      CLOUDY    38  20  48 SE13      30.12F WCI  30
MARYSVILLE     CLOUDY    34  18  51 SE13G20   30.09F WCI  25
OLATHE IND     CLOUDY    35  21  56 SE14      30.20F WCI  26
OLATHE EXE     CLOUDY    34  20  56 SE12      30.20F WCI  25
SALINA         CLOUDY    42  22  44 S20       30.06F
TOPEKA BILLARD CLOUDY    36  21  54 SE13      30.19F WCI  27
TOPEKA FORBES  CLOUDY    37  22  54 SE14      30.17F WCI  28
$$



USA.gov is the U.S. government's official web portal to all federal, state and local government web resources and services.